Flag for South Africa Weather past 2 weeks in Port Elizabeth, South Africa

Now
66 °F

Clear.


Feels Like: 66 °F
Forecast: 59 / 74 °F
Wind: 3 mph from North

Location: Port Elizabeth Airport

Current Time: Dec 17, 2014 at 10:15:21 PM

Latest Report: Dec 17, 2014 at 9:00 PM


Visibility: 10 mi

Pressure: 29.92 "Hg

Humidity: 73%

Dew point: 57 °F

Location of Port ElizabethLocation

Historic Weather in Port Elizabeth — Graph

°F

Port Elizabeth temperature yesterday

Maximum temperature yesterday: 75 °F (at 12:00 PM)
Minimum temperature yesterday: 57 °F (at 2:00 AM)
Average temperature yesterday: 66 °F

Past Weeks' High & Low Weather Summary

 TemperatureHumidityPressure
High79 °F (Dec 17, 2:00 PM)94% (Dec 2, 11:00 PM)30.21 "Hg (Dec 2, 11:00 PM)
Low54 °F (Dec 14, 4:01 AM)45% (Dec 17, 2:00 PM)29.74 "Hg (Dec 9, 4:00 AM)
Average67 °F77%30.00 "Hg
* Reported Dec 2 9:00 PM — Dec 17 9:00 PM, Port Elizabeth, Weather by CustomWeather, © 2014

Note: Actual official high and low records may vary slightly from our data, if they occured in-between our weather recording intervals... More about our weather records

Advertising

Port Elizabeth weather history for previous 24 hours

 ConditionsComfort  
Time TempWeatherWind HumidityBarometerVisibility
9:00 PM
Dec 17
66 °FClear.3 mph73%29.92 "Hg10 mi
8:00 PM66 °FClear.6 mph78%29.92 "Hg10 mi
7:00 PM68 °FPassing clouds.8 mph78%29.92 "HgN/A
6:00 PM73 °FPassing clouds.8 mph57%29.92 "HgN/A
5:00 PM75 °FPassing clouds.9 mph50%29.95 "HgN/A
4:00 PM75 °FPassing clouds.9 mph50%29.95 "HgN/A
3:00 PM75 °FPassing clouds.10 mph47%29.98 "HgN/A
2:00 PM79 °FPassing clouds.10 mph45%30.01 "HgN/A
1:00 PM77 °FPassing clouds.12 mph47%30.04 "HgN/A
12:00 PM77 °FPassing clouds.10 mph47%30.04 "HgN/A
11:00 AM75 °FPassing clouds.10 mph50%30.07 "HgN/A
10:00 AM75 °FPassing clouds.7 mph47%30.07 "HgN/A
9:00 AM72 °FPassing clouds.8 mph65%30.07 "HgN/A
8:00 AM72 °FPassing clouds.5 mph61%30.09 "HgN/A
7:00 AM68 °FPassing clouds.6 mph73%30.09 "HgN/A
6:51 AM68 °FPassing clouds.6 mph73%30.09 "HgN/A
6:00 AM57 °FSunny.2 mph94%30.07 "Hg10 mi
5:00 AM57 °FSunny.3 mph94%30.07 "Hg10 mi
4:00 AM57 °FClear.6 mph88%30.07 "Hg10 mi
2:00 AM57 °FClear.5 mph88%30.07 "Hg10 mi
1:00 AM59 °FClear.5 mph88%30.09 "Hg10 mi
12:00 AM59 °FClear.No wind88%30.12 "Hg10 mi
11:00 PM
Dec 16
63 °FClear.3 mph88%30.12 "Hg10 mi
10:00 PM64 °FPassing clouds.5 mph83%30.12 "HgN/A
Weather by CustomWeather, © 2014

See weather overviewHow to use our weather pages